CZ-6A DEB, 60980

Orbit data source: Space-Track

CZ-6A DEB, 60980 is space debris in LEO originally from a launch on Tue, 06 Aug 2024 UTC launched from the Taiyaun Space Center, China (TSC). Debris objects in space refer to the collection of defunct objects orbiting the Earth. Examples of debris include non-operational satellites, rocket bodies, and fragments generated from explosions, collisions, or faulty payload assembly.

Loading next visibility...
Identifier
60980, 2024-140MF
Orbit
LEO
Country
Flag of CNCN / PRC
Related business
Manufacturer
SAST
Mission
Spacecraft
Bus & Motor
Unknown
Mass
Unknown
Launch date (UTC)
2024-08-06 (2 years ago)
Launch vehicle
Unknown
Launch site
Taiyaun Space Center, China (TSC)
Object type
Payload
Rocket body
Debris
Shape & HBR
Unknown shape, 0.1 m
Radar Cross Section
Small (<0.1 m²)

Expand to show TLE details & history
Last TLE update: 10 hours ago

TLE from 10 hours ago
0 CZ-6A DEB
1 60980U 24140MF  26130.14895293  .00003514  00000-0  10939-2 0  9994
2 60980  88.9424 272.7175 0012812  92.4887 267.7781 14.40748987 90428
Epoch: 2026-05-10T03:34Z
TLE epoch observation values (Epoch: 2026-05-10T03:34:29.533Z)
Latitude
-0.00006°
Longitude
-8.86174°
Altitude
759.474 km
Speed
7.474 km/s
True Right ascension
18h 10m 52s
True Declination
0° 00' 00"
Sunlit
Object was in full shadow at epoch
Visualization orbit readout
Latitude
Unknown
Longitude
Unknown
Altitude
Unknown
Speed
Unknown
Apparent Right ascension
Unknown
Apparent Declination
Unknown
Sunlit
N/A
Visualization observer readout
Local Sidereal Time
21:26:33
Azimuth
Unknown
Elevation
Unknown
Doppler factor
Unknown
Orbital elements
Apogee altitude
762.083 km
Perigee altitude
743.81 km
Semi-major axis
7,131.084 km
Eccentricity
0.00128
Inclination
88.9424°
RAAN
272.7175°
Arg. of periapsis
92.4887°
True anomaly
267.6314°
Mean anomaly
267.7781°
Eccentric anomaly
267.70475°
Mean motion
3.60421 °/min
Orbital period
99.88 mins
BSTAR
0.0010939
Loading maneuver chart data...
Computing Atmospheric mass density...
Loading historical data...
Loading historical data...
Loading historical data...
Loading historical data...
Loading historical data...
Loading historical data...
Loading historical data...

Documentation

Showing up to 5 results
|